sat.trackr.live / text

‹ back to catalog

STARLINK-35393

NORAD 65827 · 2025-221E

PAYLOAD ACTIVE UNKNOWN

§ Identity

Operator
Country
US
Launch date
2025-09-29
Launch site
AFWTR
Launch vehicle
Mass (kg)
RCS (m²)

Purposes: comms

External: N2YO · Heavens-Above · Gunter

§ Orbital elements

Epoch: 2026-09-20T11:26:54.375936Z

Period
93.85 min
Inclination
53.1639°
Eccentricity
0.0001278
Mean motion
15.34413842 rev/d
Perigee alt
461.8 km
Apogee alt
463.5 km
Semi-major
6,840.8 km
B*
5.9938e-4
RAAN
259.5081°
Arg perigee
89.5387°
Mean anomaly
270.5763°
Rev number
5,596

§ Raw data

STARLINK-353931 65827U 25221E   26263.47701824  .00019937  00000+0  59938-3 0  99972 65827  53.1639 259.5081 0001278  89.5387 270.5763 15.34413842 55965

JSON: /api/v1/satellites/65827 · /tle

For live sub-satellite position, see the globe view (requires WebGL).

§ Visibility from observer

Set your observer location to see the next 7 days of passes ≥ 10°. The values pass through the URL so the page stays shareable.

No JS? Fill the form by hand. The geolocation button needs JavaScript.